Location: Newark
(7.1028°S, 35.3258°W)
Time: 20:22:11
(UTC+00:00)

Vanguard 3 - Pass Details

Date: 20 February 2020
Orbit: 508 x 3263 km, 33.4° (Epoch: 07 April)

Event Time Altitude Azimuth Distance (km) Brightness Sun altitude
Rises 18:49:16 0° 323° (NW) 6,036 12.0 27.2°
Reaches altitude 10° 18:53:08 10° 330° (NNW) 5,338 11.7 26.3°
Maximum altitude 19:09:27 46° 39° (NE) 3,903 10.5 22.3°
Drops below altitude 10° 19:27:39 10° 105° (ESE) 5,963 11.1 17.8°
Sets 19:32:12 0° 111° (ESE) 6,769 11.3 16.7°
